Location: Bréal
(48.1031°N, 1.0613°W)
Time: 17:51:30
(UTC+00:00)

Daily predictions for brighter satellites

Satellite Brightness Start Highest point End
(mag) Time Altitude Azimuth Time Altitude Azimuth Time Altitude Azimuth
Cosmos 1271 Rocket 3.4 20:42:05 10° N 20:45:54 42° ENE 20:49:40 10° SE
Cosmos 1420 Rocket 4.2 20:42:05 10° S 20:47:10 54° ESE 20:52:20 10° NNE
Cosmos 676 Rocket 4.2 20:42:18 10° NNW 20:47:37 69° ENE 20:52:52 10° SSE
Cosmos 1544 Rocket 3.9 20:45:42 10° N 20:49:56 51° ENE 20:54:10 10° SSE
Lacrosse 5 rocket 1.6 20:46:34 10° WNW 20:50:18 56° SW 20:54:16 10° SE
Tiangong 2.6 20:48:30 10° WSW 20:51:04 22° S 20:53:37 10° SE
USA 276 2.2 20:54:12 10° SW 20:57:06 46° SSE 21:00:01 10° E
X-37B 1.0 20:55:00 10° SW 20:57:35 34° SSE 21:00:11 10° E
Helios 1A Rocket 3.6 20:53:48 10° SE 20:57:37 41° ENE 21:01:29 10° N
NOSS 2-1 (C) 4.0 20:54:29 10° NW 20:58:53 80° NE 21:05:07 10° SE
SPOT 5 3.1 20:55:45 10° SE 20:59:59 47° ENE 21:04:10 10° N
Ariane Rocket 3.4 20:57:33 10° S 21:02:38 67° WSW 21:07:43 10° NNW
USA 267 4.1 20:57:23 10° ENE 21:02:43 26° SE 21:08:01 10° S
Cosmos 1954 Rocket 4.1 21:00:03 10° NNW 21:05:21 81° WSW 21:10:34 10° SSE
SPOT 1/Viking Rocket 4.2 21:00:55 10° S 21:05:56 54° W 21:11:01 10° NNW
USA 32 4.1 21:01:02 10° S 21:06:13 69° E 21:11:25 10° N
RESURS DK-1 3.6 21:03:04 10° NNW 21:06:48 31° NE 21:10:31 10° ESE
NOSS 2-1 (D) 4.0 21:04:46 10° NW 21:09:14 88° SW 21:15:21 11° SE
Resurs 01 Rocket 3.0 21:08:27 10° SSW 21:12:32 36° W 21:16:40 10° NNW
Cosmos 1455 2.1 21:09:01 10° N 21:12:51 83° E 21:16:40 10° S
Cosmos 2184 Rocket 4.3 21:06:57 10° N 21:12:58 52° ENE 21:18:46 11° SSE
Lacrosse 5 2.1 21:19:22 10° WNW 21:24:24 61° SW 21:28:44 14° SE
Terra 2.0 21:21:16 12° SSE 21:25:32 59° ENE 21:30:15 10° N
Cosmos 1025 Rocket 4.1 21:26:04 10° SSW 21:30:09 45° WNW 21:34:19 10° N
TSX-5 4.5 21:25:57 10° S 21:30:14 54° ESE 21:35:47 10° NE
USA 102 3.1 21:23:43 13° SE 21:32:09 56° E 21:33:14 24° NNE
Spot 2 Rocket 3.6 21:28:27 11° SSE 21:33:24 83° WSW 21:38:34 10° NNW
CZ-4B R/B 3.6 21:31:27 10° NNW 21:33:48 22° WNW 21:36:07 10° WSW
Cosmos 1980 Rocket 3.6 21:30:50 10° NNW 21:35:49 30° NE 21:40:45 10° ESE
ATLAS 2AS CENTAUR R/B 3.1 21:29:13 10° NW 21:36:10 58° WSW 21:41:56 13° SSE
Cosmos 1697 Rocket 3.2 21:32:43 10° NNW 21:38:14 51° ENE 21:42:50 14° SE
USA 234 3.9 21:31:57 10° E 21:38:18 55° NNE 21:44:40 10° NW
Cosmos 1452 Rocket 3.5 21:36:37 10° S 21:41:49 65° ESE 21:47:02 10° NNE
Cosmos 1703 3.2 21:39:26 13° S 21:42:43 63° E 21:46:33 10° NNE
Cosmos 1656 3.7 21:37:58 10° NNW 21:43:27 79° WSW 21:47:55 16° SSE
ARIANE 5 R/B 2.7 21:41:11 16° SSE 21:44:39 67° ENE 21:49:04 10° N
CZ-2C R/B 3.6 21:45:36 10° NNE 21:50:13 80° ESE 21:54:43 10° SSW
Cosmos 1110 Rocket 4.2 21:48:03 12° S 21:52:48 52° ESE 21:57:56 10° NNE
GP-B 4.4 21:49:15 10° NNE 21:52:59 26° E 21:55:18 17° SE
SL-8 R/B 3.6 21:52:56 10° W 21:57:45 77° SSW 22:02:03 13° ESE
Cosmos 1328 4.4 21:55:44 21° SSE 21:57:59 41° E 22:01:47 10° NNE
Cosmos 2074 Rocket 4.2 21:54:05 10° NNW 22:00:21 73° W 22:05:53 13° S
Cosmos 2228 2.9 21:56:53 10° N 22:01:09 87° W 22:04:03 20° S
Cosmos 1536 Rocket 4.1 22:00:17 10° SSW 22:04:32 58° WNW 22:08:51 10° N
Cosmos 1833 Rocket 2.7 22:00:25 10° SSW 22:05:56 63° ESE 22:11:30 10° NNE
Cosmos 2084 Rocket 4.2 22:02:41 10° NNW 22:06:23 41° NE 22:09:23 15° ESE
ERS-1 Rocket 3.7 22:03:26 13° S 22:07:48 48° W 22:12:42 10° NNW
Meteor 1-21 Rocket 4.2 22:03:29 14° S 22:08:18 77° E 22:14:00 10° NNE
SAR-Lupe-1 4.4 22:06:45 10° NNE 22:10:13 47° E 22:11:51 27° SSE
Cosmos 1606 Rocket 3.5 22:06:40 10° N 22:11:01 78° E 22:13:37 23° SSE
Nadezhda 1 Rocket 3.9 22:11:21 14° S 22:16:45 88° E 22:22:52 10° N
Cosmos 2360 4.2 22:14:31 10° NNW 22:20:17 85° WSW 22:24:01 23° SSE
Cosmos 968 Rocket 3.8 22:18:47 10° NNW 22:23:56 57° ENE 22:27:10 22° SE
Cosmos 2154 Rocket 4.2 22:20:23 10° NNW 22:26:34 66° W 22:31:18 17° S
Cosmos 2082 Rocket 2.7 22:27:58 23° SSE 22:31:04 43° ESE 22:36:26 10° NE
ASTEX 1 3.4 22:27:12 10° N 22:32:14 72° E 22:35:10 25° S
USA 276 2.4 22:29:47 10° W 22:32:46 62° N 22:35:45 10° ENE
X-37B 0.9 22:30:07 10° WSW 22:32:25 39° SSW 22:32:25 39° SSW
Cosmos 1726 Rocket 3.5 22:31:02 10° NNW 22:35:22 77° W 22:37:38 27° S
ADEOS Rocket 4.2 22:30:44 16° SE 22:36:10 44° ENE 22:43:19 10° N
Cosmos 1825 3.4 22:38:07 24° ESE 22:38:58 27° E 22:42:10 10° NNE
RESURS DK-1 3.6 22:41:06 10° NW 22:44:45 31° WSW 22:46:32 22° SSW
USA 267 3.2 22:39:47 10° NE 22:46:22 81° SE 22:52:55 10° SW
Cosmos 1633 4.3 22:51:55 18° E 22:52:19 18° E 22:54:47 10° NE
SL-8 Rocket 4.0 22:48:35 10° N 22:54:53 84° E 22:58:31 27° SSE
ALOS 2 3.3 22:53:39 26° SE 22:55:42 43° ENE 22:59:53 10° N
H-2A R/B 4.4 22:52:09 10° NNE 22:56:01 34° E 22:57:07 29° SE
Cosmos 1486 Rocket 4.4 22:55:42 10° NNW 23:00:50 54° ENE 23:03:46 25° SE
FALCON 9 DEB 4.3 23:00:05 10° WNW 23:03:13 41° NNE 23:06:21 10° E
Terra 3.9 23:00:23 10° SW 23:03:41 19° W 23:07:00 10° NW
Lacrosse 5 4.0 23:04:30 10° W 23:06:28 12° WSW 23:07:55 11° SW
Cosmos 1869 3.3 23:03:39 10° N 23:07:31 66° E 23:08:43 40° SE
Cosmos 2218 Rocket 4.0 23:02:39 10° N 23:09:07 90° NE 23:12:46 28° S
Meteor 1-27 4.2 23:04:35 10° N 23:10:11 83° ENE 23:13:00 31° SSE
BREEZE-M DEB (TANK) 3.6 23:07:32 10° W 23:10:34 80° N 23:21:31 10° E
Cosmos 2366 rocket 4.0 23:05:02 10° N 23:11:23 88° W 23:14:58 28° S
Cosmos 1992 Rocket 4.3 23:09:46 32° SSE 23:11:52 51° ESE 23:16:57 10° NNE
Cosmos 2058 Rocket 3.5 23:07:47 10° NNW 23:12:06 55° W 23:14:00 31° SSW
COSMOS 2406 3.4 23:07:53 14° SW 23:12:56 72° WNW 23:18:43 10° NNE
Cosmos 1892 Rocket 4.3 23:10:35 21° SW 23:13:17 47° WNW 23:17:32 10° N
Cosmos 2369 4.0 23:08:31 10° NW 23:14:08 57° WSW 23:16:53 29° S
Cosmos 1892 2.9 23:13:06 34° SSW 23:14:31 63° WNW 23:18:16 10° N
SL-16 R/B 3.1 23:09:10 10° NNW 23:14:34 43° NE 23:18:41 17° ESE
TIMED 4.4 23:13:44 35° SSW 23:15:33 81° ESE 23:19:55 10° NNE
Cosmos 807 4.4 23:14:58 10° N 23:18:14 56° ENE 23:18:36 51° ESE
Cosmos-2242 3.8 23:14:34 10° N 23:18:36 40° ENE 23:20:11 28° ESE
Cosmos 2341 Rocket 4.4 23:12:42 10° NNW 23:18:54 57° W 23:22:37 24° SSW
Cosmos 1408 3.4 23:18:48 28° SW 23:20:08 41° WNW 23:23:25 10° N
Cosmos 1980 Rocket 2.5 23:14:35 10° NW 23:20:10 57° WSW 23:22:48 30° S
USA 234 3.2 23:16:55 23° SE 23:21:13 70° SW 23:27:47 10° WNW
Cosmos 1697 Rocket 3.9 23:17:09 10° NW 23:21:55 29° WSW 23:24:33 20° SW
Cosmos 1626 Rocket 3.4 23:26:41 39° S 23:28:15 88° E 23:32:37 10° N
GP-B 4.3 23:26:18 10° NNW 23:30:20 35° W 23:32:44 20° SW
BREEZE-M DEB (TANK) 3.7 23:23:53 10° WSW 23:35:14 73° SSE 23:38:42 10° ENE
In-Cosmos 22 Rocket 4.4 23:32:41 26° SSW 23:35:55 68° WNW 23:41:23 10° N
Cosmos 1503 Rocket 4.2 23:32:44 10° NNW 23:38:03 67° ENE 23:40:43 29° SE
Cosmos 1867 3.8 23:33:16 10° NW 23:38:37 56° WSW 23:40:44 34° S
Cosmos 1825 Rocket 4.5 23:39:29 29° SE 23:40:41 35° E 23:44:37 10° NNE
Spot 4 4.4 23:39:20 30° SSW 23:41:13 45° W 23:45:50 10° NNW
Cosmos 1340 Rocket 4.5 23:41:37 19° ESE 23:42:26 21° E 23:45:24 10° NE
Cosmos 2084 Rocket 4.4 23:42:17 10° WNW 23:45:39 27° WSW 23:45:49 27° SW
Okean 1-7 Rocket 4.3 23:48:43 28° SW 23:50:45 48° WNW 23:55:06 10° N
SJ 16-02 1.9 23:46:50 10° NNW 23:51:11 53° ENE 23:53:10 29° SE
ATLAS 5 CENTAUR R/B 1.1 23:51:32 52° S 23:52:17 68° SE 23:56:26 10° NE
Meteor 2-20 4.4 23:49:26 32° S 23:52:30 83° E 23:58:38 10° N
Cosmos 2322 Rocket 2.6 23:47:23 10° NNW 23:53:01 58° ENE 23:56:45 21° SE
